Location: Clanezzo
(45.7500°N, 9.6000°E)
Time: 03:34:34
(UTC+00:00)

STARS - Pass Details

Date: 05 July 2022
Orbit: 620 x 637 km, 98.2° (Epoch: 13 August)

Event Time Altitude Azimuth Distance (km) Brightness Sun altitude
Rises 20:44:19 0° 34° (NE) 2,925 ? -12.3°
Reaches altitude 10° 20:47:57 10° 66° (ENE) 2,006 ? -12.7°
Maximum altitude 20:49:37 12° 89° (E) 1,873 ? -12.8°
Enters shadow 20:50:32 11° 101° (ESE) 1,910 ? -12.9°
